Theta_e
290 291 291 291 291 291 291 291 291 291 290 290 290 290 290 290 290 290 290 290 290 290 290 290 290 290 289 289 289 289 289 289 289 289 289 288 288 288 288 287 287 287 287 286 286 286 286 287 287 286 286 286 286 286 285 285 285 284 284 284 284 284 283
290 290 290 290 290 290 290 290 290 290 290 290 290 290 290 289 289 289 289 289 289 289 289 289 289 289 289 289 289 289 289 289 289 288 288 288 288 288 288 287 287 287 287 286 286 286 286 286 286 286 286 286 286 285 285 285 284 284 283 283 283 283 283
290 290 290 290 290 290 290 290 290 290 290 290 289 289 289 289 289 289 289 289 289 289 289 289 289 289 289 289 289 289 288 288 288 288 288 288 288 287 287 287 287 286 286 286 286 286 285 285 285 285 285 285 285 285 284 284 284 283 283 282 282 282 282
289 290 290 290 290 290 289 289 289 289 289 289 289 289 289 289 289 289 289 289 288 288 288 288 288 288 288 288 288 288 288 288 288 288 287 287 287 287 287 287 286 286 286 286 286 285 285 285 285 284 284 284 284 284 284 283 283 283 282 282 282 281 281
288 288 288 289 289 289 289 289 289 289 289 289 289 289 289 289 289 289 288 288 288 288 288 288 288 288 288 288 288 287 287 287 287 287 287 287 287 287 286 286 286 286 286 285 285 285 285 284 284 284 283 283 283 283 283 283 282 282 282 282 281 281 281
287 287 287 287 287 288 288 288 288 288 288 288 288 288 288 288 288 288 288 288 288 288 288 288 288 288 287 287 287 287 287 287 287 287 286 286 286 286 286 286 286 285 285 285 285 285 284 284 284 283 283 283 282 282 282 282 281 281 281 281 281 281 280
285 285 286 286 286 287 287 287 287 287 287 287 287 287 287 287 287 288 288 288 288 288 288 288 288 287 287 287 287 287 287 286 286 286 286 286 286 285 285 285 285 285 285 285 284 284 284 284 283 283 282 282 281 281 280 280 280 280 281 281 281 280 280
283 283 284 284 284 284 285 285 286 286 286 286 286 287 287 287 287 287 287 287 287 287 287 287 287 287 287 287 287 287 287 286 286 286 286 286 285 285 285 285 285 284 284 284 284 284 284 283 283 283 282 281 281 280 280 280 280 281 281 281 281 280 280
282 282 282 282 282 283 283 283 284 284 284 284 285 285 286 286 286 286 286 286 286 286 286 287 287 287 287 287 287 287 286 286 286 285 285 285 285 285 285 284 284 284 284 284 283 283 283 283 283 282 282 281 281 281 281 281 281 281 280 280 280 279 279
280 281 281 281 281 281 282 282 282 282 282 283 283 283 283 284 284 284 285 285 285 286 286 286 286 286 286 286 286 286 286 286 286 285 285 285 285 285 284 284 284 284 284 283 283 283 283 282 283 283 282 282 282 282 281 281 280 280 280 280 279 279 279
280 280 280 280 280 280 281 281 281 281 281 281 282 282 282 282 282 283 283 283 284 284 284 285 285 285 285 285 285 285 285 285 285 285 285 285 285 285 284 284 284 284 283 283 283 283 283 282 283 283 282 282 282 281 281 281 281 280 280 279 279 279 278
279 279 279 279 279 280 280 280 280 280 280 280 280 280 280 281 281 281 282 282 282 282 283 283 283 283 284 284 284 284 284 284 284 284 284 284 284 284 284 284 284 284 283 283 283 283 283 283 283 283 282 282 282 281 281 281 280 280 280 279 279 279 278
278 278 278 278 278 278 278 279 279 279 279 279 279 279 279 279 279 280 280 281 281 281 281 281 282 282 282 282 282 283 283 283 283 283 283 283 283 283 283 284 284 283 283 283 283 283 283 283 283 283 283 283 282 281 281 280 280 280 279 279 279 279 278
277 277 277 277 277 277 277 277 277 277 278 278 278 278 278 278 278 278 279 279 279 280 280 280 280 280 281 281 281 281 281 281 282 282 282 282 283 283 283 283 283 283 283 283 283 283 283 283 283 283 283 283 282 281 280 280 279 279 279 279 279 278 277
276 276 276 276 276 276 276 276 276 276 276 276 276 277 277 277 277 278 278 278 278 278 278 279 279 279 279 280 280 280 280 280 280 280 281 281 281 282 282 282 283 283 283 283 282 283 283 283 283 282 282 282 281 280 280 279 279 278 278 278 277 277 276
274 274 274 274 274 274 275 275 275 275 275 275 275 275 275 276 276 276 276 277 277 277 277 277 278 278 278 278 279 279 279 279 279 279 279 280 280 281 281 281 282 282 282 282 282 282 282 282 282 282 281 281 280 279 279 278 277 277 277 276 276 275 275
273 273 273 273 273 273 273 273 273 273 273 273 273 273 274 274 274 274 275 275 275 276 276 276 276 277 277 277 277 278 278 278 278 278 279 279 279 280 280 280 281 281 281 281 281 282 282 281 281 280 280 280 279 278 278 277 277 277 276 276 276 275 276
271 272 272 272 272 271 271 272 271 272 272 272 272 272 272 273 273 273 273 273 274 274 275 275 275 276 276 276 276 276 277 277 277 277 278 278 278 279 279 280 280 280 280 281 281 281 281 281 280 280 280 279 279 278 277 277 276 276 276 276 276 276 276
269 270 270 270 270 270 270 271 271 271 271 271 271 271 271 272 272 272 272 272 272 272 273 273 274 274 275 275 275 275 276 276 276 276 277 277 278 278 278 279 279 279 279 280 280 280 280 280 280 280 279 279 278 278 277 276 276 276 276 276 276 276 275
268 268 268 268 269 269 269 269 269 269 269 270 270 270 270 270 270 271 271 270 271 271 271 271 272 272 272 273 274 274 274 275 275 275 276 276 276 277 277 278 278 278 278 278 279 279 279 279 279 279 278 278 277 277 277 276 275 275 275 275 275 275 275
267 267 268 267 267 268 268 268 268 268 268 268 268 268 268 268 269 269 270 269 270 270 270 270 270 270 271 272 272 273 273 273 274 274 274 275 275 275 276 276 276 277 277 277 278 278 278 278 277 277 277 277 276 276 276 275 275 275 275 275 275 274 274
266 267 267 267 267 267 267 267 267 267 267 267 267 267 267 268 268 268 268 269 269 269 269 269 269 269 270 270 271 272 272 273 273 273 274 274 274 275 275 275 276 276 276 277 277 277 277 277 276 276 276 276 275 275 275 275 274 274 274 274 274 273 273
266 266 266 266 267 266 266 266 266 266 266 266 266 267 267 267 267 267 267 268 268 269 269 269 269 269 270 270 270 271 271 272 272 273 273 274 274 274 275 275 275 276 276 276 277 276 276 276 276 276 275 275 275 274 274 274 274 274 273 273 272 272 272
265 265 265 266 266 266 266 266 266 266 266 266 266 266 266 266 266 266 267 267 267 268 268 268 269 269 269 269 269 270 270 271 272 272 273 273 273 274 274 275 275 275 276 276 276 276 276 275 275 275 275 274 274 274 273 273 273 272 272 271 271 271 271
264 264 264 264 265 265 265 265 265 265 265 265 265 266 265 265 265 266 266 266 267 267 267 268 268 269 269 269 269 269 270 270 271 272 272 273 273 273 274 274 274 275 275 276 276 276 275 275 275 275 274 274 274 273 273 273 272 271 271 270 270 270 270
263 263 263 263 264 264 264 264 265 265 265 265 265 265 265 265 265 265 265 266 266 267 267 267 268 268 268 269 268 269 269 269 270 271 272 272 273 273 273 274 274 274 275 275 275 275 275 275 274 274 273 273 273 272 272 272 271 270 270 270 270 270 269
262 262 262 263 263 263 263 263 263 264 264 264 264 264 264 264 264 264 264 265 265 266 266 267 268 268 268 268 268 268 268 269 270 271 271 272 272 273 273 274 274 274 274 275 275 275 275 275 274 273 273 272 272 272 271 271 270 270 270 269 269 269 269
262 262 262 262 261 262 262 262 262 262 263 263 263 263 263 264 264 264 264 264 265 265 266 266 267 267 268 268 268 268 268 269 269 270 270 271 271 272 272 273 273 273 274 274 274 274 274 274 273 273 272 272 271 271 270 270 270 269 269 269 269 269 269
261 261 261 261 261 260 260 260 261 261 262 262 262 262 262 262 263 263 263 263 264 264 265 265 266 266 267 267 267 267 268 268 269 269 269 270 270 271 272 272 272 273 273 273 273 273 273 272 272 271 271 270 270 270 270 269 269 269 268 268 268 268 268
260 260 260 260 260 259 259 259 260 261 261 262 261 261 261 262 262 262 262 263 264 264 264 264 265 266 266 267 267 267 267 268 268 268 268 269 270 270 271 271 271 271 271 271 271 271 271 271 270 270 270 270 269 269 269 269 268 268 268 268 267 267 267
260 260 259 259 259 259 260 260 260 260 261 261 262 261 261 261 262 262 262 263 263 263 264 264 265 265 265 266 266 267 267 267 267 267 268 268 269 269 269 269 269 269 269 269 269 269 269 269 269 269 269 269 269 269 268 268 268 267 267 267 267 267 267
260 259 259 259 259 259 260 260 260 260 261 261 261 262 262 261 261 261 262 262 262 262 263 263 264 264 265 266 266 266 266 267 267 267 267 267 268 268 268 268 268 268 268 268 268 269 269 269 269 269 269 268 268 268 268 267 267 267 267 266 266 266 266
259 259 259 259 259 259 259 259 260 260 260 261 261 261 261 261 261 261 261 261 262 262 262 263 263 264 264 265 265 266 266 266 266 266 266 267 267 267 267 267 268 268 268 268 268 268 268 268 268 268 268 268 268 267 267 267 267 266 266 266 266 266 266
259 259 259 259 259 259 259 259 259 259 260 260 260 260 260 260 260 261 261 261 261 261 262 262 262 263 263 264 265 265 265 266 266 266 266 266 266 266 266 267 267 267 267 267 267 267 267 267 267 267 267 267 267 266 266 266 266 266 266 266 265 265 265
259 258 258 258 258 258 258 258 258 259 259 259 259 259 259 260 260 260 261 261 260 261 261 261 262 262 263 263 264 264 265 265 265 265 266 266 266 266 266 266 266 266 266 266 266 266 267 267 267 267 266 266 266 266 266 266 265 265 265 265 265 264 264
258 258 257 257 257 257 257 258 258 258 258 258 258 258 259 259 259 259 260 260 260 260 260 261 261 261 262 262 263 263 264 264 265 265 265 265 265 265 265 265 265 265 265 266 266 266 266 266 266 266 266 266 266 266 265 265 265 264 264 264 264 264 263
Wind_Speed
20 20 21 21 21 21 20 21 20 20 21 22 23 24 24 24 24 26 27 27 27 28 28 28 29 29 28 27 27 28 27 27 27 27 28 28 29 29 29 29 30 35 38 37 34 33 32 32 32 32 32 31 31 30 30 29 28 27 28 29 30 31 32
19 19 20 20 20 21 21 21 21 21 22 24 24 25 25 25 25 26 27 27 28 28 28 29 29 30 28 27 29 29 28 28 28 28 29 29 29 30 29 29 30 33 36 37 35 32 31 30 30 31 31 31 31 30 30 30 29 28 29 29 30 31 32
17 18 19 19 20 20 20 21 22 22 24 25 25 26 26 26 26 27 27 28 28 27 27 28 29 30 28 28 29 30 29 29 29 29 30 30 30 30 30 29 30 31 34 36 35 33 31 30 29 30 30 30 30 30 30 30 30 29 29 29 30 31 32
15 17 18 19 20 20 21 21 22 23 24 25 26 27 27 27 28 28 28 29 28 27 27 28 30 29 28 28 30 30 30 29 30 30 30 30 30 30 30 29 29 31 32 34 35 33 32 30 29 30 30 29 29 30 31 31 30 30 30 30 30 30 32
12 14 16 17 19 20 20 21 22 22 23 24 25 26 27 27 28 29 30 30 30 29 29 29 30 30 28 28 30 31 30 30 30 29 30 30 30 30 29 29 29 30 30 32 34 34 32 31 30 31 31 31 30 30 31 31 31 30 30 30 30 31 32
11 13 14 15 16 17 18 19 20 21 21 22 23 25 26 26 27 28 29 30 30 30 31 31 31 31 29 30 31 31 30 30 29 30 30 31 30 29 29 29 29 29 30 32 34 33 32 33 32 32 32 32 31 31 31 31 30 30 30 31 31 32 32
12 13 13 15 16 17 18 18 19 20 20 21 22 23 24 25 26 27 28 29 30 30 31 31 32 32 31 32 32 32 31 30 30 30 31 31 30 29 29 30 30 30 30 32 33 33 33 34 33 33 34 34 32 32 32 32 31 31 32 32 32 32 33
13 13 14 15 15 16 17 18 19 20 21 21 22 23 24 24 25 26 27 28 29 29 30 31 31 32 32 32 33 33 32 31 31 31 31 31 30 29 30 30 31 31 32 33 33 34 34 34 34 34 35 35 34 35 35 33 33 33 33 33 33 34 35
15 16 16 16 16 17 18 18 19 20 21 22 23 24 25 25 26 27 28 28 29 29 29 30 30 31 32 32 33 33 33 33 32 32 33 32 31 30 31 32 32 33 33 34 35 35 35 35 36 37 37 37 37 37 35 34 34 34 34 33 34 35 36
17 18 19 19 19 19 20 20 21 21 22 22 23 24 25 26 27 28 29 30 30 30 30 30 31 31 31 32 32 33 33 33 33 34 34 34 33 32 33 33 34 34 35 35 36 36 36 37 38 39 38 38 37 36 35 34 35 35 35 35 37 38 38
19 20 21 22 22 22 22 22 23 23 24 24 24 25 26 27 28 28 29 30 30 31 31 31 32 32 32 32 32 32 32 32 33 33 34 34 34 34 35 35 36 36 36 36 37 37 37 38 39 39 38 37 36 35 35 35 36 36 37 38 39 39 38
22 22 22 23 23 24 24 24 24 25 25 25 26 27 28 29 30 31 31 31 31 31 32 32 32 32 33 33 33 33 33 33 33 33 33 34 34 35 36 37 37 38 38 38 38 37 38 39 39 38 37 37 35 34 34 35 36 38 39 39 39 39 38
24 23 24 24 24 24 25 25 25 25 26 27 28 28 29 30 32 33 34 33 33 33 33 33 33 33 33 33 33 33 33 33 34 34 34 34 34 35 36 37 37 38 38 39 38 38 40 40 39 38 38 37 34 32 33 34 36 37 38 39 39 38 37
26 26 26 26 26 26 26 25 24 25 26 27 28 29 30 31 33 35 35 35 34 34 34 34 35 35 35 34 33 33 33 33 33 33 33 34 35 37 37 37 37 38 38 39 39 41 42 42 41 41 40 38 34 33 33 34 34 34 35 36 37 36 35
28 28 27 27 28 28 28 27 25 25 26 27 27 28 29 31 33 35 36 36 36 36 36 36 36 37 37 36 35 34 33 33 33 33 33 34 35 36 36 37 38 39 38 38 39 40 41 41 41 40 40 38 35 34 34 33 32 32 31 32 33 34 34
29 29 28 28 28 28 29 27 26 26 26 26 25 26 27 29 31 33 35 36 36 36 37 37 37 37 37 37 37 36 34 33 33 33 34 35 35 35 36 37 38 37 37 37 37 38 38 38 38 38 37 36 35 34 34 33 33 33 32 31 31 32 33
29 29 29 29 28 28 28 27 25 25 25 24 23 23 24 26 27 30 33 34 35 36 37 37 37 37 37 38 37 36 34 33 33 33 34 35 36 36 36 38 38 36 36 35 36 36 36 36 36 36 36 36 35 35 35 34 35 35 34 33 33 34 34
30 29 29 28 28 28 28 28 26 26 26 24 22 23 24 26 27 29 30 31 33 35 35 36 36 36 36 37 37 35 34 32 32 32 34 35 36 36 38 39 38 36 35 35 35 35 35 35 35 35 35 36 36 37 36 36 36 36 35 35 34 34 32
30 30 28 27 27 27 27 28 28 27 27 26 24 24 25 26 28 29 29 29 30 31 32 33 35 34 33 34 34 33 32 31 30 30 33 34 34 36 39 39 37 36 35 35 34 34 35 35 35 34 34 35 36 36 36 36 35 34 33 33 33 32 31
30 30 28 27 26 26 26 27 27 26 26 26 26 25 24 25 27 29 29 29 28 29 31 31 31 30 31 31 30 30 29 28 26 27 29 30 32 35 38 37 34 34 34 33 32 32 33 33 33 31 31 33 35 35 34 33 33 32 32 31 31 31 31
29 29 29 27 26 26 25 25 25 25 25 25 26 25 23 24 27 27 28 29 29 29 29 28 27 29 31 30 29 28 28 27 26 25 26 28 30 32 33 32 32 32 31 31 30 30 31 31 31 30 30 31 32 33 32 32 32 32 31 31 30 30 29
28 28 28 27 26 25 24 23 23 23 22 22 22 22 21 23 25 26 26 28 29 29 28 28 30 32 31 28 28 28 27 26 25 24 24 26 28 27 27 28 30 30 29 29 29 29 30 31 30 30 30 31 31 31 31 32 33 32 31 30 28 26 25
27 28 28 27 26 25 24 23 22 21 21 20 20 20 20 20 22 23 24 26 29 30 30 31 32 32 29 26 27 27 26 25 25 24 25 26 26 25 25 26 28 29 30 30 30 29 29 30 30 30 31 31 31 31 31 31 31 30 28 26 23 22 21
26 26 27 27 26 25 24 23 22 21 21 22 21 21 20 20 20 21 22 24 27 29 31 31 30 28 26 26 26 26 25 25 24 24 25 25 26 26 26 26 27 28 29 31 32 30 28 28 29 29 30 31 32 31 31 31 29 26 24 21 20 19 19
25 25 26 26 26 25 24 23 23 23 23 22 21 21 20 20 20 20 20 22 24 25 28 29 28 27 25 25 26 25 25 25 24 24 25 25 26 27 27 27 27 28 29 31 31 28 26 26 27 28 30 31 31 32 31 30 27 24 21 19 19 19 19
25 24 25 25 25 25 24 24 24 24 23 21 20 19 18 17 17 17 19 21 21 22 23 26 27 26 24 24 25 25 25 24 24 24 24 25 26 27 27 28 28 27 28 30 30 28 26 25 25 27 29 30 31 31 30 27 24 21 19 19 18 19 19
24 24 24 25 25 24 25 25 24 24 23 20 19 17 15 15 17 19 20 22 22 21 21 22 23 23 22 22 24 25 24 23 22 23 23 24 25 25 26 28 28 26 25 27 28 29 28 25 24 26 29 31 31 30 27 24 22 20 19 18 19 19 21
24 24 24 24 24 25 25 25 24 23 22 20 19 17 15 15 19 21 23 24 24 23 22 21 21 21 21 20 21 22 21 19 18 18 18 19 20 20 21 23 23 23 23 25 28 29 28 26 24 25 27 29 29 27 25 22 20 19 19 19 20 21 22
24 24 24 23 23 23 23 23 23 23 22 21 20 19 17 17 20 21 23 26 27 25 25 24 22 21 20 19 18 18 18 16 14 13 14 15 16 16 17 19 21 22 24 25 26 26 24 22 21 20 22 24 24 23 21 19 19 19 20 20 21 22 23
23 23 22 21 20 19 20 23 25 26 26 26 25 23 22 22 21 21 24 29 29 27 27 26 23 21 19 17 16 15 16 14 12 12 13 14 12 11 11 12 14 16 17 17 17 16 16 15 16 18 19 19 19 19 19 19 19 20 20 21 22 22 23
21 20 18 17 19 22 24 26 27 28 28 28 28 27 27 24 21 20 25 30 30 28 26 25 24 22 19 17 15 14 13 13 14 13 14 13 11 9 8 8 9 10 10 11 11 12 13 14 15 15 16 16 17 18 18 19 20 20 20 21 22 23 23
19 19 18 19 22 24 26 26 26 26 27 26 26 27 25 21 19 21 26 29 28 27 25 24 25 24 21 19 17 15 12 12 14 15 15 14 12 11 10 10 10 9 9 10 11 11 12 14 15 15 16 17 17 18 18 19 19 20 21 22 23 24 25
19 19 20 21 22 22 23 23 23 23 24 23 24 24 21 17 18 23 26 27 26 25 23 22 22 24 23 21 19 17 14 13 13 15 16 16 15 15 15 14 14 13 14 14 14 14 14 15 16 17 17 18 18 18 18 19 20 20 22 23 25 25 25
21 20 21 21 21 21 21 21 21 21 21 21 21 20 17 16 20 23 25 25 24 23 22 21 20 21 21 21 20 19 17 16 14 14 15 16 16 16 16 16 16 16 16 16 16 16 16 16 16 17 17 17 18 18 19 19 20 21 22 24 25 24 24
24 22 22 22 21 21 20 20 20 20 19 19 20 19 18 19 21 23 23 23 22 20 20 19 19 19 19 20 20 19 20 19 18 16 16 16 16 15 16 16 17 17 17 17 17 17 17 17 17 17 18 18 18 19 20 20 21 21 22 22 22 22 21
25 24 23 22 21 21 20 19 18 19 19 19 19 19 19 19 20 20 21 21 20 19 19 18 17 18 18 19 19 19 20 21 20 19 18 17 17 17 17 17 17 17 17 17 17 17 18 18 19 19 19 20 20 20 21 20 20 20 20 20 20 20 20
Wind_Direction
263 261 261 260 259 258 257 256 255 255 256 256 257 258 259 260 260 260 260 260 260 259 259 260 260 260 260 262 261 260 260 260 260 262 262 262 263 263 264 266 267 269 272 273 272 272 271 269 269 269 269 268 268 268 268 268 266 263 261 259 258 257 256
264 263 263 262 261 259 258 257 256 255 255 255 256 257 257 258 259 259 260 261 261 261 261 261 261 260 261 262 263 262 261 261 261 262 262 263 264 264 264 265 267 270 273 274 274 275 274 271 269 269 268 268 268 268 268 268 267 264 262 260 259 258 257
260 260 260 260 260 260 259 259 257 255 254 254 254 254 254 255 255 257 258 259 260 260 261 261 261 261 261 261 262 262 262 262 262 262 263 263 264 265 265 265 267 269 271 274 276 276 275 274 272 270 268 267 267 266 266 265 265 264 262 260 259 258 258
256 257 257 258 259 260 260 260 259 258 257 256 256 255 254 254 253 254 255 256 257 257 257 258 259 260 260 260 261 261 262 262 262 262 263 263 263 264 265 266 266 267 269 273 275 275 275 275 274 272 269 267 265 265 265 264 264 263 262 261 259 258 257
256 257 257 258 258 259 259 259 258 258 258 258 259 259 258 257 256 255 255 255 256 256 256 256 257 258 259 259 259 260 260 261 262 262 263 263 263 264 265 266 265 265 267 269 271 273 275 274 273 271 270 268 266 264 264 263 263 263 262 261 260 258 256
266 264 263 262 262 262 261 261 260 259 258 258 259 259 260 260 259 259 259 259 258 257 257 257 257 258 258 258 258 259 260 260 261 261 262 262 263 264 265 265 264 264 265 265 267 270 272 272 271 271 271 269 267 265 264 263 262 262 261 260 259 258 257
273 272 271 269 268 267 266 265 264 263 262 261 261 261 261 261 261 261 261 261 261 260 260 259 259 258 258 257 257 258 259 259 260 260 260 261 262 264 264 263 263 264 264 264 265 267 268 269 269 269 268 267 265 263 260 258 257 258 258 259 260 260 259
279 277 276 275 273 272 271 270 269 268 267 266 265 264 264 264 263 263 262 262 262 262 262 261 261 261 260 259 259 259 258 259 259 259 259 259 259 260 260 261 261 262 262 263 264 264 265 266 266 265 264 262 259 256 255 256 257 260 261 261 262 262 259
285 282 279 278 276 276 275 274 274 274 273 272 270 268 268 267 266 265 264 264 263 263 262 262 262 262 262 262 261 261 260 259 259 258 258 258 257 257 258 258 259 260 261 262 263 263 263 264 263 262 260 259 258 258 261 263 262 262 263 261 259 258 257
291 288 285 282 279 278 277 276 276 276 275 275 275 274 273 271 270 268 267 266 265 263 263 262 262 262 262 261 261 261 260 260 259 259 258 258 257 256 256 257 258 258 259 261 262 262 262 263 262 262 261 262 264 266 266 264 262 262 262 259 255 254 254
293 291 289 287 284 282 280 278 277 276 276 275 276 276 275 274 273 272 270 270 269 267 266 264 264 263 262 262 262 261 261 260 259 259 259 259 258 257 256 256 257 258 259 260 260 261 262 262 262 263 264 265 266 265 263 263 263 262 260 257 255 256 256
296 294 292 289 287 285 283 281 279 278 277 276 275 275 274 274 273 272 271 271 271 272 271 270 268 267 266 265 264 263 263 261 260 259 259 259 258 258 257 256 256 257 257 258 259 260 261 261 263 264 264 264 265 264 264 263 261 259 258 258 257 258 259
299 298 295 293 291 288 285 284 283 282 280 278 277 275 275 275 274 273 272 272 272 273 273 273 272 271 270 269 268 267 266 265 264 262 261 259 258 257 256 255 255 255 255 257 258 259 259 261 263 264 264 265 267 266 264 260 258 258 258 258 258 260 261
299 298 297 296 295 292 289 288 288 286 284 281 279 277 275 275 275 275 275 275 274 274 274 274 274 273 272 272 272 271 271 270 269 267 265 262 260 258 257 255 254 253 253 254 255 257 259 261 263 264 265 267 267 264 261 259 259 259 259 259 260 260 258
299 297 296 295 295 293 292 293 292 289 286 283 281 278 276 275 274 275 275 275 274 274 273 273 274 274 274 274 273 273 273 273 272 271 269 267 264 262 260 257 255 254 253 254 255 258 260 262 263 263 264 265 265 264 263 262 261 261 261 260 258 254 251
299 298 297 296 295 295 294 294 293 289 286 285 284 282 280 278 277 276 275 274 274 273 272 272 273 273 274 274 274 273 273 273 273 272 271 270 268 267 265 262 260 257 255 255 257 259 261 262 262 262 262 263 262 262 261 259 257 254 250 248 246 245 245
297 297 297 297 298 298 296 295 293 289 286 285 285 284 281 279 278 277 277 278 277 276 275 275 275 274 274 274 274 274 273 272 272 271 271 271 270 269 267 266 264 261 258 257 258 259 260 261 260 260 259 259 258 258 257 254 251 247 243 241 240 242 244
296 295 295 296 296 296 294 292 290 288 286 285 284 282 280 278 278 278 280 282 282 281 280 279 277 276 276 275 274 274 274 273 272 271 270 270 270 269 267 266 266 263 260 258 258 259 259 258 257 256 257 257 256 255 254 251 249 247 244 242 242 244 247
301 298 297 296 294 292 290 289 289 288 288 287 284 282 282 283 282 281 281 282 285 286 284 281 281 280 278 277 276 275 275 273 271 269 269 269 269 267 266 266 266 265 263 259 257 258 258 258 257 255 255 256 255 255 253 252 250 247 244 242 243 244 244
303 301 300 299 296 293 291 290 290 289 287 285 284 284 286 286 283 282 282 280 281 283 285 287 289 287 283 281 280 279 277 275 270 266 265 265 264 264 265 267 267 266 265 262 259 258 259 259 258 256 256 255 254 253 251 248 245 242 241 241 242 242 242
302 300 299 299 298 296 294 293 291 289 287 284 283 283 284 282 280 280 281 280 279 281 285 288 287 285 286 289 288 284 281 279 275 270 265 262 261 263 266 268 267 267 265 262 260 260 259 257 255 254 253 252 251 251 248 242 239 238 239 240 241 241 242
301 299 297 297 296 295 294 293 292 291 288 284 282 282 281 279 276 276 278 280 280 280 281 281 280 282 288 292 291 288 286 283 279 275 269 265 262 263 264 265 265 265 262 259 258 259 257 253 251 251 251 249 247 246 244 239 237 237 237 238 240 241 243
300 299 297 296 295 293 292 290 289 288 285 282 280 279 279 279 278 278 279 280 280 280 280 281 282 285 289 290 291 290 288 284 279 274 270 267 264 260 257 258 261 261 259 258 259 258 255 251 249 248 247 245 243 241 240 237 235 234 234 235 237 241 246
301 299 297 297 295 294 293 292 289 285 280 278 278 279 281 284 285 285 284 281 279 279 280 282 285 288 289 290 291 291 289 285 280 274 270 267 264 260 254 253 258 260 259 258 257 255 252 249 248 248 247 245 241 237 234 231 229 227 227 230 235 242 249
302 300 299 298 297 296 296 293 289 286 284 285 286 287 287 287 286 287 288 285 283 282 281 281 282 285 287 288 289 291 291 288 283 276 271 267 264 261 254 250 254 260 261 257 254 251 250 250 250 249 247 244 238 232 228 225 222 221 223 229 238 245 252
303 302 300 299 299 299 297 293 291 292 294 296 297 294 292 291 290 292 295 293 289 286 283 280 279 280 283 286 290 291 291 289 284 278 273 268 266 263 257 250 251 257 259 257 253 251 250 252 253 248 242 237 231 226 222 219 218 221 226 234 242 250 255
302 302 302 302 302 300 298 298 300 300 300 299 297 293 298 307 308 304 299 294 290 287 283 280 277 278 280 285 289 291 291 288 282 277 272 268 265 263 259 253 251 253 256 256 255 252 250 250 249 244 236 228 222 217 215 215 218 226 233 239 245 252 256
302 302 304 304 303 303 304 305 304 301 299 299 297 297 305 313 310 304 298 292 291 291 289 285 281 280 281 284 287 292 291 284 278 278 278 275 271 267 262 256 254 254 253 251 250 248 245 243 242 238 231 223 215 211 212 217 224 232 238 243 248 253 257
301 301 302 301 303 307 309 305 298 295 296 297 296 297 301 299 299 303 300 291 288 290 291 292 290 287 284 284 289 295 293 282 277 285 289 286 280 274 266 259 254 250 246 243 242 241 240 238 233 224 216 211 209 211 217 225 232 238 243 247 251 255 259
297 296 298 300 300 297 292 288 287 289 292 292 291 291 290 286 290 297 295 288 287 289 289 290 291 291 288 285 288 297 295 283 277 283 284 279 270 259 246 238 234 231 228 227 225 223 219 214 207 202 202 206 213 221 228 235 240 244 248 250 253 257 260
292 291 290 289 284 279 278 280 284 288 290 291 291 290 288 289 293 294 288 286 290 293 291 289 287 287 287 283 281 287 291 283 277 280 278 269 257 244 227 212 205 203 202 203 206 205 206 208 210 214 221 227 232 237 239 242 244 247 250 253 256 260 262
292 287 282 277 276 280 284 286 288 289 289 290 291 289 290 293 295 288 283 286 292 295 295 292 286 283 283 280 275 274 277 275 273 275 274 267 258 253 248 242 238 236 235 235 236 236 235 238 242 245 246 247 247 247 247 248 249 251 254 257 259 262 264
294 288 285 283 284 287 290 291 291 291 291 291 291 292 294 294 286 280 281 288 294 297 298 295 288 282 280 278 274 269 266 263 264 267 269 269 268 266 264 263 262 262 262 261 260 257 255 253 253 253 253 253 252 252 252 253 254 255 257 259 261 263 266
297 294 293 292 292 292 293 293 294 293 292 292 292 291 290 282 276 277 282 289 294 298 298 296 291 286 280 277 273 269 263 260 259 261 263 266 270 273 273 272 271 269 268 267 265 262 260 258 256 255 255 254 254 255 255 256 257 258 260 262 264 266 267
301 300 299 299 299 298 297 296 295 294 293 292 290 288 284 279 277 279 284 288 292 295 295 294 292 288 282 277 273 268 263 259 257 257 256 257 260 265 270 272 273 273 271 269 266 264 262 260 259 259 258 258 259 259 260 261 261 262 263 264 265 266 265
301 300 300 301 302 302 300 297 294 291 288 287 286 286 287 286 285 285 286 288 292 295 295 294 293 290 286 281 275 270 265 260 257 255 252 253 255 257 259 261 263 265 266 265 264 262 261 260 259 260 260 261 261 262 263 264 264 263 263 263 263 261 259